Regional Weather Roundup
Issued by NWS

Home | Current Version | Previous Version | Text Only | Print | Product List | Glossary Off
Versions: 1 2 3 4 5 6 7 8 9 10 11 12 13 14 15 16 17 18 19 20 21 22 23 24 25 26 27 28 29 30 31 32 33 34 35 36 37 38 39 40 41 42 43 44 45 46 47 48 49 50

000
ASUS43 KBIS 211931
RWRND
NORTH DAKOTA REGIONAL WEATHER ROUNDUP
NATIONAL WEATHER SERVICE EASTERN NORTH DAKOTA/GRAND FORKS ND
200 PM CDT SAT APR 21 2018

  NOTE: "FAIR" INDICATES FEW OR NO CLOUDS BELOW 12,000 FEET WITH NO
  SIGNIFICANT WEATHER AND/OR OBSTRUCTIONS TO VISIBILITY.

NDZ001>003-009>011-017-212000-
...NORTHWEST NORTH DAKOTA...

CITY           SKY/WX    TMP DP  RH WIND       PRES   REMARKS
WILLISTON      FAIR      65  39  38 S15G24    30.03F
MINOT          FAIR      61  40  45 S23G33    30.13F
MINOT AFB      FAIR      61  42  50 S23G33    30.11F
$$

NDZ018>021-031>035-040>046-212000-
...SOUTHWEST NORTH DAKOTA...

CITY           SKY/WX    TMP DP  RH WIND       PRES   REMARKS
BISMARCK       FAIR      63  34  33 S28G37    30.20F
DICKINSON      FAIR      62  37  39 S22G33    30.09F
GARRISON         N/A     58  40  51 S22       30.14F
HETTINGER      PTSUNNY   55  35  47 S22G31    30.16F
$$

NDZ004>008-012>016-024-026-027-054-212000-
...NORTHEAST NORTH DAKOTA...

CITY           SKY/WX    TMP DP  RH WIND       PRES   REMARKS
GRAND FORKS    FAIR      57  45  64 S16       30.28F
GRAND FORKS AF FAIR      58  45  62 S15       30.28F
DEVILS LAKE    FAIR      58  40  51 S17       30.23F
$$

NDZ022-023-025-028>030-036>039-047>053-212000-
...SOUTHEAST NORTH DAKOTA...

CITY           SKY/WX    TMP DP  RH WIND       PRES   REMARKS
JAMESTOWN      FAIR      58  41  53 S15G26    30.25F
FARGO          FAIR      59  41  51 S10G16    30.30F
WAHPETON       FAIR      57  36  44 SW12      30.33S
$$




USA.gov is the U.S. government's official web portal to all federal, state and local government web resources and services.